[[{"header":{"parameterUnit":"m.s-1","parameterCategory":1,"la1":30.2991,"la2":30.254,"lo1":-89.0895,"lo2":-89.0444,"dy":0.0017,"dx":0.0017,"nx":28,"ny":28,"refTime":"2024-06-06T21:00:00:Z","depth":0,"parameterNumber":2,"parameterNumberName":"U-component_of_WINDS"},"data":[0,0,0,0,0,0,0,0,0,0,0,0,0,0,0,0,0,0,0,0,0,0,0,0,0,0,0,0,0,0,0,0,0,0,0,0,0,0,0,0,0,0,0,0,0,0,0,0,0,0,0,0,0,0,0,0,0,0,0.9565,0.9566,0,0.96,0.9601,0.9601,0.9601,0.96,0.96,0.9599,0.9636,0.9637,0.9639,0,0,0,0,0,0,0,0,0,0,0,0,0,0.9498,0.9499,0.9565,0.9566,0.9566,0.96,0.9601,0.9601,0.9601,0.96,0.9599,0.9599,0.9635,0.9637,0.9639,0,0,0,0,0,0,0,0,0,0,0,0,0,0.953,0.95,0.9565,0.957,0.9571,0.96,0.9601,0.9601,0.9601,0.96,0.9599,0.9599,0.9635,0.9637,0.9639,0.9666,0,0,0.9645,0.9646,0,0,0,0,0,0,0,0,0.9528,0.9532,0.9569,0.957,0.9571,0.9595,0.959,0.9623,0.9601,0.9589,0.9599,0.9598,0.9623,0.9626,0.9634,0.9668,0.9669,0.9646,0.9647,0.9648,0.9648,0,0,0,0,0,0,0,0.9526,0.9531,0.9579,0.9569,0.9571,0.957,0.9574,0.9597,0.961,0.959,0.959,0.9594,0.9623,0.9632,0.9635,0.967,0.9646,0.9647,0.9649,0.965,0.9725,0.9726,0,0,0,0,0,0,0.9522,0.9529,0.9578,0.958,0.9547,0.9572,0.9576,0.9588,0.9609,0.9612,0.9595,0.9594,0.9629,0.9633,0.9636,0.9668,0.9648,0.965,0.9651,0.9724,0.9725,0.9726,0,0,0,0,0,0,0.9521,0.9527,0.9577,0.9555,0.9561,0.9574,0.9587,0.9589,0.9598,0.9613,0.9615,0.9602,0.9628,0.9633,0.9658,0.9669,0.9651,0.9653,0.9724,0.9725,0.9726,0.9732,0,0,0,0,0,0,0.9519,0.9526,0.9537,0.9555,0.9562,0.9598,0.9588,0.959,0.9601,0.9601,0.962,0.9622,0.9628,0.9655,0.966,0.9672,0.9654,0.9723,0.9724,0.9725,0.9731,0.9733,0.9735,0,0,0,0,0,0.9517,0.9538,0.9538,0.9543,0.9576,0.9599,0.9603,0.9609,0.9602,0.9613,0.9622,0.9622,0.9667,0.9657,0.9663,0.9676,0.9722,0.9724,0.9725,0.973,0.9733,0.9735,0,0,0,0,0,0,0.9522,0.9541,0.954,0.9568,0.9582,0.9599,0.9612,0.9612,0.9628,0.9627,0.9634,0.9639,0.9663,0.9672,0.9661,0.9702,0.9694,0.9697,0.9695,0.9698,0.97,0.9697,0.9656,0,0,0,0,0,0.9526,0.9544,0.9559,0.9582,0.9589,0.9599,0.9609,0.9613,0.9628,0.9633,0.9645,0.9659,0.9676,0.9688,0.9705,0.9732,0.9736,0.9744,0.9746,0.9747,0.975,0.9763,0.9766,0.9732,0.9732,0.9732,0,0,0.9536,0.9548,0.9558,0.9583,0.9594,0.9611,0.9604,0.9623,0.9636,0.9637,0.966,0.9669,0.9685,0.9711,0.9723,0.9719,0.976,0.975,0.9751,0.9752,0.9765,0.9769,0.9771,0.9733,0.9733,0.9732,0,0,0.9561,0.9573,0.9592,0.9603,0.9619,0.9626,0.963,0.9647,0.9652,0.9676,0.9676,0.9692,0.9722,0.9733,0.9743,0.977,0.977,0.9776,0.9787,0.98,0.9803,0.9805,0.9814,0.9817,0.9778,0.9778,0.9778,0,0.9571,0.9597,0.9602,0.9621,0.9631,0.9631,0.9651,0.9661,0.9682,0.9689,0.9685,0.9721,0.9733,0.976,0.9766,0.9775,0.978,0.9773,0.9802,0.9804,0.9807,0.9815,0.9818,0.9778,0.9778,0.9778,0.9778,0,0.9607,0.9625,0.9638,0.9658,0.967,0.9689,0.9697,0.9708,0.971,0.9717,0.974,0.9753,0.9772,0.9779,0.9782,0.9806,0.9803,0.98,0.9792,0.981,0.9818,0.9821,0.9779,0.9779,0.9779,0.9779,0,0,0.9637,0.9658,0.9663,0.9671,0.9688,0.9702,0.9721,0.9738,0.9747,0.9762,0.9777,0.9801,0.9798,0.9809,0.9813,0.9824,0.9843,0.9819,0.982,0.9822,0.9869,0.9871,0.9875,0.9843,0.9844,0.9844,0.9868,0,0.9664,0.9696,0.9701,0.9729,0.9745,0.9745,0.976,0.9772,0.9779,0.9793,0.9801,0.9817,0.9812,0.9819,0.983,0.9838,0.9853,0.9837,0.9856,0.9857,0.9851,0.9879,0.9881,0.9903,0.9871,0.9871,0.9872,0,0.9699,0.9713,0.9743,0.9756,0.9763,0.9777,0.9792,0.9806,0.9819,0.9823,0.9834,0.9836,0.9855,0.9846,0.987,0.986,0.9868,0.9873,0.9874,0.9876,0.9865,0.988,0.991,0.9913,0.9877,0.9877,0.9876,0,0.9717,0.9743,0.9764,0.9771,0.9787,0.9797,0.9804,0.9817,0.9826,0.984,0.9846,0.9862,0.9871,0.9883,0.9889,0.9882,0.9913,0.9905,0.9916,0.9916,0.9922,0.9922,0.9952,0.9929,0.9929,0.9929,0.9929,0,0.9745,0.9763,0.9771,0.9784,0.9804,0.9809,0.9828,0.9835,0.9846,0.9859,0.9861,0.9873,0.9881,0.9894,0.9899,0.9918,0.9922,0.9925,0.9926,0.9925,0.9924,0.993,0.9928,0.9929,0.9929,0.9929,0.9929,0,0.9768,0.9775,0.9797,0.981,0.9814,0.9828,0.9839,0.9851,0.9857,0.9874,0.9878,0.9887,0.9903,0.991,0.9931,0.9933,0.9955,0.9955,0.995,0.995,0.9961,0.9959,0.9996,1.0,0.9974,0.9974,0.9975,0,0.9786,0.9799,0.9813,0.9822,0.9829,0.9844,0.9853,0.9859,0.9868,0.9883,0.9893,0.9909,0.9922,0.9947,0.9956,0.9971,0.9971,0.9982,0.9973,0.997,0.9969,0.9968,0.9969,0.9984,0.9984,0.9984,0.9985,0,0.9815,0.9817,0.9831,0.9845,0.9856,0.9868,0.9879,0.9886,0.9893,0.9904,0.9919,0.9929,0.9949,0.9964,0.9979,0.9986,0.9986,0.9987,0.9991,0.9989,0.9985,0.9986,0.9954,0.9987,0.9986,0.9986,0.9986,0.9986,0.9836,0.9847,0.9858,0.9872,0.9881,0.9891,0.9902,0.9909,0.9922,0.9938,0.994,0.9957,0.9968,0.9988,0.9996,1.0009,1.0006,1.0011,1.0012,1.0013,1.0013,0.9983,1.0012,1.0012,1.0012,1.0012,1.0012,0,0.9864,0.9871,0.9884,0.9899,0.991,0.9909,0.9921,0.993,0.9944,0.9955,0.9967,0.9984,0.9999,1.0008,1.0022,1.003,1.003,1.0034,1.0033,1.0034,1.0015,1.0011,1.0033,1.0033,1.0033,1.0033,1.0033,1.0033,0.988,0.9899,0.9902,0.9924,0.9931,0.9947,0.9953,0.9962,0.9971,0.999,1.0001,1.0007,1.0016,1.0031,1.0044,1.0046,1.0051,1.0054,1.0056,1.0038,1.0036,1.0034,1.0029,1.0055,1.0055,1.0074,1.0074,1.0074]},{"header":{"parameterUnit":"m.s-1","parameterCategory":1,"la1":30.2991,"la2":30.254,"lo1":-89.0895,"lo2":-89.0444,"dy":0.0017,"dx":0.0017,"nx":28,"ny":28,"refTime":"2024-06-06T21:00:00:Z","depth":0,"parameterNumber":3,"parameterNumberName":"V-component_of_WINDS"},"data":[0,0,0,0,0,0,0,0,0,0,0,0,0,0,0,0,0,0,0,0,0,0,0,0,0,0,0,0,0,0,0,0,0,0,0,0,0,0,0,0,0,0,0,0,0,0,0,0,0,0,0,0,0,0,0,0,0,0,-0.3066,-0.3066,0,-0.3026,-0.3025,-0.3025,-0.3002,-0.3002,-0.3002,-0.3002,-0.296,-0.2959,-0.2958,0,0,0,0,0,0,0,0,0,0,0,0,0,-0.3124,-0.3123,-0.3067,-0.3066,-0.3065,-0.3026,-0.3025,-0.3025,-0.3002,-0.3002,-0.3002,-0.3002,-0.296,-0.2959,-0.2957,0,0,0,0,0,0,0,0,0,0,0,0,0,-0.3093,-0.3123,-0.3067,-0.3049,-0.3047,-0.3026,-0.3025,-0.3025,-0.3002,-0.3002,-0.3002,-0.3002,-0.296,-0.2959,-0.2957,-0.295,0,0,-0.2952,-0.2952,0,0,0,0,0,0,0,0,-0.3094,-0.3091,-0.3052,-0.3051,-0.3048,-0.3019,-0.303,-0.3,-0.3002,-0.3019,-0.3002,-0.3002,-0.2979,-0.2976,-0.2969,-0.2948,-0.2946,-0.2952,-0.2951,-0.2951,-0.295,0,0,0,0,0,0,0,-0.3097,-0.3092,-0.305,-0.3052,-0.3049,-0.3043,-0.3039,-0.3024,-0.3,-0.3018,-0.3016,-0.3012,-0.2978,-0.297,-0.2968,-0.2945,-0.2952,-0.2951,-0.295,-0.2949,-0.2916,-0.2916,0,0,0,0,0,0,-0.3102,-0.3094,-0.3052,-0.3049,-0.3072,-0.3043,-0.3037,-0.3028,-0.3001,-0.2996,-0.3012,-0.3011,-0.2973,-0.297,-0.2966,-0.2955,-0.2951,-0.2949,-0.2948,-0.2916,-0.2916,-0.2916,0,0,0,0,0,0,-0.3103,-0.3098,-0.3053,-0.3071,-0.3065,-0.3042,-0.3032,-0.3028,-0.302,-0.2996,-0.2992,-0.3008,-0.2973,-0.2968,-0.2954,-0.2954,-0.2948,-0.2947,-0.2916,-0.2916,-0.2916,-0.2934,0,0,0,0,0,0,-0.3105,-0.3099,-0.3096,-0.3071,-0.3064,-0.3042,-0.3032,-0.3027,-0.3017,-0.3015,-0.2991,-0.2987,-0.2973,-0.2956,-0.2952,-0.2951,-0.2946,-0.2916,-0.2916,-0.2916,-0.2933,-0.2935,-0.2936,0,0,0,0,0,-0.3107,-0.3102,-0.3096,-0.3091,-0.306,-0.3042,-0.3038,-0.3021,-0.3017,-0.3014,-0.2999,-0.2988,-0.2954,-0.2955,-0.295,-0.2949,-0.2916,-0.2916,-0.2916,-0.2933,-0.2934,-0.2936,0,0,0,0,0,0,-0.3127,-0.3099,-0.3091,-0.3078,-0.3063,-0.3038,-0.3034,-0.3024,-0.3009,-0.3008,-0.2987,-0.2982,-0.297,-0.2958,-0.2959,-0.294,-0.2934,-0.2933,-0.2948,-0.295,-0.2951,-0.2954,-0.2945,0,0,0,0,0,-0.313,-0.3118,-0.3094,-0.3085,-0.3078,-0.3057,-0.3049,-0.3037,-0.302,-0.3013,-0.2997,-0.2981,-0.2966,-0.2957,-0.2943,-0.2931,-0.2926,-0.2928,-0.2929,-0.293,-0.293,-0.2923,-0.2924,-0.2916,-0.2916,-0.2916,0,0,-0.3136,-0.3119,-0.3113,-0.3089,-0.3075,-0.3063,-0.3052,-0.3039,-0.303,-0.3011,-0.2997,-0.2984,-0.2965,-0.2952,-0.2945,-0.2942,-0.2931,-0.2931,-0.2932,-0.293,-0.2923,-0.2924,-0.2925,-0.2917,-0.2917,-0.2917,0,0,-0.3141,-0.3127,-0.3118,-0.3105,-0.3085,-0.3071,-0.3069,-0.3046,-0.3037,-0.3022,-0.3008,-0.2996,-0.2972,-0.2959,-0.2949,-0.2949,-0.2939,-0.2945,-0.2951,-0.2945,-0.2945,-0.2946,-0.2946,-0.2946,-0.2944,-0.2944,-0.2944,0,-0.3151,-0.3132,-0.3115,-0.3103,-0.3093,-0.3076,-0.3066,-0.3054,-0.3031,-0.3024,-0.302,-0.299,-0.2975,-0.2959,-0.2959,-0.2952,-0.2948,-0.2947,-0.2947,-0.2947,-0.2947,-0.2947,-0.2947,-0.2945,-0.2945,-0.2945,-0.2945,0,-0.3145,-0.3132,-0.3128,-0.3105,-0.3095,-0.3084,-0.3065,-0.3056,-0.3046,-0.3033,-0.3018,-0.3,-0.2982,-0.2977,-0.2967,-0.2959,-0.2958,-0.2951,-0.2944,-0.2949,-0.2948,-0.2948,-0.2947,-0.2946,-0.2946,-0.2946,0,0,-0.3161,-0.313,-0.3128,-0.3118,-0.3094,-0.3084,-0.3073,-0.3055,-0.3048,-0.3032,-0.3022,-0.3002,-0.2996,-0.2985,-0.2972,-0.2967,-0.2968,-0.296,-0.296,-0.2962,-0.2959,-0.2964,-0.2964,-0.2961,-0.2961,-0.2961,-0.296,0,-0.3162,-0.3142,-0.3126,-0.3111,-0.3099,-0.3083,-0.3073,-0.3058,-0.3045,-0.3033,-0.3019,-0.3005,-0.2997,-0.2991,-0.2984,-0.2969,-0.2967,-0.2969,-0.2951,-0.2951,-0.2957,-0.2964,-0.2969,-0.297,-0.296,-0.296,-0.296,0,-0.3161,-0.3146,-0.313,-0.3108,-0.3103,-0.3094,-0.3077,-0.3065,-0.3048,-0.3039,-0.3026,-0.3014,-0.3001,-0.2996,-0.2979,-0.298,-0.2972,-0.2964,-0.2963,-0.2961,-0.2956,-0.2962,-0.297,-0.297,-0.2959,-0.2959,-0.2959,0,-0.3174,-0.315,-0.3138,-0.3129,-0.3103,-0.3098,-0.3087,-0.3069,-0.3059,-0.3044,-0.3037,-0.3021,-0.3011,-0.2999,-0.2982,-0.298,-0.2966,-0.296,-0.2959,-0.2959,-0.2956,-0.2957,-0.2963,-0.2951,-0.2951,-0.2951,-0.2951,0,-0.3177,-0.3168,-0.3143,-0.3136,-0.3125,-0.3107,-0.3097,-0.3084,-0.3068,-0.3058,-0.3043,-0.3033,-0.3012,-0.2999,-0.2986,-0.2974,-0.297,-0.2962,-0.2959,-0.2963,-0.2964,-0.2958,-0.2957,-0.2951,-0.2951,-0.2951,-0.2951,0,-0.319,-0.3173,-0.3158,-0.3135,-0.3129,-0.3122,-0.3102,-0.3094,-0.308,-0.3067,-0.3063,-0.3042,-0.3027,-0.3009,-0.2988,-0.2979,-0.2968,-0.2963,-0.2974,-0.2972,-0.2972,-0.2972,-0.2974,-0.2973,-0.2963,-0.2963,-0.2963,0,-0.3193,-0.3186,-0.3162,-0.3154,-0.3143,-0.313,-0.312,-0.3102,-0.3093,-0.3072,-0.3066,-0.305,-0.3036,-0.3013,-0.2995,-0.2979,-0.2974,-0.2975,-0.2971,-0.2976,-0.2974,-0.2974,-0.2973,-0.2977,-0.2977,-0.2977,-0.2977,0,-0.32,-0.3192,-0.3179,-0.3162,-0.3151,-0.3137,-0.3122,-0.3117,-0.3095,-0.3085,-0.307,-0.3059,-0.3038,-0.3022,-0.3004,-0.2992,-0.2981,-0.2979,-0.2977,-0.2982,-0.2989,-0.2985,-0.2977,-0.2979,-0.2978,-0.2978,-0.2978,-0.2978,-0.3208,-0.3201,-0.3183,-0.3168,-0.3156,-0.3142,-0.3134,-0.3119,-0.3106,-0.3087,-0.3077,-0.3062,-0.3044,-0.3019,-0.3007,-0.2995,-0.2991,-0.299,-0.2989,-0.2989,-0.299,-0.2991,-0.2992,-0.2992,-0.2992,-0.2992,-0.2991,0,-0.3214,-0.3202,-0.3189,-0.3169,-0.3158,-0.3149,-0.3132,-0.3123,-0.311,-0.3094,-0.3081,-0.3063,-0.3048,-0.3029,-0.3012,-0.3006,-0.3001,-0.3002,-0.3003,-0.3,-0.2995,-0.2997,-0.3007,-0.3007,-0.3007,-0.3007,-0.3007,-0.3007,-0.3216,-0.3204,-0.3194,-0.3174,-0.3162,-0.3147,-0.3138,-0.3126,-0.3113,-0.3094,-0.3081,-0.307,-0.3053,-0.3035,-0.302,-0.3015,-0.301,-0.3013,-0.3006,-0.3002,-0.3,-0.2999,-0.3002,-0.3012,-0.3012,-0.3013,-0.3013,-0.3013]}]]